Starlink 35077

operational
NORAD ID: 65529 Int'l Des: 2025-200 Owner: SPXS Country: US Constellation: starlink
LEOCIRCULARRETROGRADE

Über Starlink 35077

Beschreibung wird geladen...

Live-Position

3D-Globus wird geladen...

Nächste Überflüge

Höhenverlauf

Altitude vs Time

uPlot chart will show altitude changes over time

Zweizeiliger Elementsatz

1 65529U 25200K 25304.17712274 .00049467 00000-0 12596-2 0 9996
2 65529 97.6043 11.8307 0001916 111.9882 248.1567 15.39411050 9624
Epoch: 31. Okt. 2025 • Age: 16 hours

Aktueller Status

Höhe 450.2 km
Geschwindigkeit 7.64 km/s
Subsatellitenpunkt 15.50°N, 31.25°E
Startdatum 6. Sept. 2025
Alter 0.1 years
Typ internet

Technische Details

Klassifizierung Payload
Masse 575.00 kg
Trockenmasse 530.00 kg
Gesamtmasse 575.00 kg
Länge 0.30 m
Durchmesser 4.10 m
Spannweite 29.00 m
Form Box + pan
Hersteller SPXS
Bus-Typ Starlink V2MO
Phasenstatus In Orbit
Besitzer/Staat SPXS/US

Große Konstellationen

Loading constellations...